Forside
METAR-TAF:

METAR-TAF

Lufthavne :

Richard I. Bong Airport

Superior, Wisconsin, USA

Breddekreds: 46-41-23N, længdekreds: 092-05-41W, højde: 205 m

Aktuelle vejr

Denne rapport blev lavet for 29 minutter siden, kl. 13:15 UTC
Vind 4 kt fra sydvest
Temperatur 19°C
Fugtighed 94%
Tryk 1009 hPa
Sigt: 16.1 km
Brudte skyer i en højde af 10000 ft

METAR: KSUW 091315Z AUTO 22004KT 10SM BKN100 19/18 A2980 RMK AO2 T01910180

Tid: 08:44 (13:44 UTC)


TAF: fraværende

Vejrobservationer og prognoser fra mere end 4000 lufthavne (METAR og TAF).

De gule og røde prikker repræsenterer de meteorologiske stationer.

Flyt musen over at se navnet på stationen.

Så klik over at se vejr observationer og prognoser.

At skifte det kort: Klik på de grønne knapper med et sort kors for at zoome ind; på den grønne knap med en bindestreg for at zoome ud; eller på de grønne pile for tilstødende kort.


METAR-TAF: